Fortuna, CA

2:23 AM PDT on September 22, 2019 (GMT -0700)
Rohnerville

Weather History for KFOT - August, 2019

Change the Weather History Date:

Sunday, August 25, 2019

  Actual Average (WUND) Record (WUND)
Temperature  
Mean Temperature 60 °F -  
Max Temperature 71 °F - - (-1)
Min Temperature 50 °F - - (-1)
Degree Days  
Heating Degree Days 4    
Growing Degree Days 10 (Base 50)    
Moisture  
Dew Point 55 °F    
Average Humidity 86    
Maximum Humidity 100    
Minimum Humidity 60    
Precipitation  
Precipitation 0.00 in - - ()
Sea Level Pressure  
Sea Level Pressure 30.01 in    
Wind  
Wind Speed 5 mph ()    
Max Wind Speed 15 mph    
Max Gust Speed 18 mph    
Visibility 7.7 miles    
Events      
Averages and records for this station are not official NWS values.
T = Trace of Precipitation, MM = Missing Value Source: Averaged Metar Reports

Daily Weather History Graph

Daily Weather History Graph

Search for Another Location

Airport or City:

Astronomy

Aug. 25, 2019 Rise Set
Actual Time 6:36 AM PDT 7:59 PM PDT
Civil Twilight 6:08 AM PDT 8:28 PM PDT
Nautical Twilight 5:34 AM PDT 9:02 PM PDT
Astronomical Twilight 4:57 AM PDT 9:38 PM PDT
Moon 1:15 AM PDT (8/25) 4:27 PM PDT (8/25)
Length of Visible Light 14h 19m
Length of Day
13h 22m
Waning Crescent, 28% of the Moon is Illuminated
Aug 25
Waning Crescent
Aug 30
New
Sep 5
First Quarter
Sep 13
Full
Sep 21
Last Quarter

Hourly Weather History & Observations

Time (PDT) Temp. Dew Point Humidity Pressure Visibility Wind Dir Wind Speed Gust Speed Precip Events Conditions
12:15 AM 53.6 °F 53.6 °F 100% 30.03 in 10.0 mi ESE 3.5 mph - N/A   Clear
12:35 AM 53.6 °F 51.8 °F 94% 30.03 in 10.0 mi SSE 4.6 mph - N/A   Clear
12:55 AM 53.6 °F 51.8 °F 94% 30.03 in 9.0 mi SSE 4.6 mph - N/A   Clear
1:15 AM 53.6 °F 51.8 °F 94% 30.03 in 10.0 mi SSE 3.5 mph - N/A   Clear
1:35 AM 53.6 °F 53.6 °F 100% 30.03 in 10.0 mi Calm Calm - N/A   Clear
1:55 AM 53.6 °F 53.6 °F 100% 30.03 in 10.0 mi Calm Calm - N/A   Clear
2:15 AM 53.6 °F 51.8 °F 94% 30.03 in 7.0 mi Calm Calm - N/A   Clear
2:35 AM 53.6 °F 51.8 °F 94% 30.03 in 3.0 mi Calm Calm - N/A   Scattered Clouds
2:55 AM 53.6 °F 53.6 °F 100% 30.03 in 5.0 mi Calm Calm - N/A   Mostly Cloudy
3:15 AM 53.6 °F 53.6 °F 100% 30.03 in 6.0 mi Calm Calm - N/A   Overcast
3:35 AM 53.6 °F 53.6 °F 100% 30.03 in 1.8 mi Calm Calm - N/A   Overcast
3:55 AM 53.6 °F 53.6 °F 100% 30.03 in 0.2 mi Calm Calm - N/A   Overcast
4:15 AM 53.6 °F 53.6 °F 100% 30.02 in 0.2 mi SE 6.9 mph - N/A   Overcast
4:35 AM 51.8 °F 51.8 °F 100% 30.03 in 0.2 mi SE 5.8 mph - N/A   Overcast
4:55 AM 50.0 °F 50.0 °F 100% 30.02 in 0.2 mi SE 5.8 mph - N/A   Overcast
5:15 AM 51.8 °F 51.8 °F 100% 30.03 in 9.0 mi Calm Calm - N/A   Scattered Clouds
5:35 AM 51.8 °F 51.8 °F 100% 30.03 in 0.2 mi Calm Calm - N/A   Overcast
5:55 AM 51.8 °F 50.0 °F 94% 30.03 in 0.2 mi Calm Calm - N/A   Overcast
6:15 AM 50.0 °F 50.0 °F 100% 30.03 in 0.2 mi SSE 4.6 mph - N/A   Overcast
6:35 AM 50.0 °F 50.0 °F 100% 30.02 in 6.0 mi SSE 6.9 mph - N/A   Scattered Clouds
6:55 AM 50.0 °F 50.0 °F 100% 30.02 in 0.2 mi SE 8.1 mph - N/A   Overcast
7:15 AM 50.0 °F 50.0 °F 100% 30.02 in 0.2 mi SE 4.6 mph - N/A   Overcast
7:35 AM 51.8 °F 50.0 °F 94% 30.02 in 0.2 mi Calm Calm - N/A   Mostly Cloudy
7:55 AM 51.8 °F 51.8 °F 100% 30.02 in 4.0 mi SSE 3.5 mph - N/A   Partly Cloudy
8:15 AM 53.6 °F 53.6 °F 100% 30.02 in 10.0 mi SE 6.9 mph - N/A   Clear
8:35 AM 55.4 °F 55.4 °F 100% 30.02 in 10.0 mi East 3.5 mph - N/A   Clear
8:55 AM 57.2 °F 55.4 °F 94% 30.02 in 10.0 mi NNW 3.5 mph - N/A   Clear
9:15 AM 59.0 °F 55.4 °F 88% 30.02 in 10.0 mi NNW 3.5 mph - N/A   Partly Cloudy
9:35 AM 59.0 °F 55.4 °F 88% 30.02 in 10.0 mi North 5.8 mph - N/A   Scattered Clouds
9:55 AM 62.6 °F 55.4 °F 77% 30.03 in 10.0 mi WNW 8.1 mph - N/A   Partly Cloudy
10:15 AM 62.6 °F 57.2 °F 82% 30.03 in 10.0 mi NW 6.9 mph - N/A   Partly Cloudy
10:35 AM 62.6 °F 57.2 °F 82% 30.03 in 10.0 mi NNW 4.6 mph - N/A   Partly Cloudy
10:55 AM 66.2 °F 57.2 °F 73% 30.03 in 10.0 mi NW 6.9 mph - N/A   Partly Cloudy
11:15 AM 68.0 °F 57.2 °F 68% 30.03 in 10.0 mi North 4.6 mph - N/A   Partly Cloudy
11:35 AM 69.8 °F 59.0 °F 68% 30.03 in 10.0 mi NNW 6.9 mph - N/A   Clear
11:55 AM 71.6 °F 59.0 °F 64% 30.03 in 10.0 mi NW 6.9 mph - N/A   Partly Cloudy
12:15 PM 69.8 °F 59.0 °F 68% 30.03 in 10.0 mi NW 12.7 mph - N/A   Partly Cloudy
12:35 PM 66.2 °F 57.2 °F 73% 30.03 in 10.0 mi NW 13.8 mph - N/A   Clear
12:55 PM 66.2 °F 57.2 °F 73% 30.03 in 10.0 mi WNW 13.8 mph - N/A   Partly Cloudy
1:15 PM 66.2 °F 57.2 °F 73% 30.02 in 10.0 mi WNW 13.8 mph - N/A   Scattered Clouds
1:35 PM 68.0 °F 57.2 °F 68% 30.02 in 10.0 mi WNW 15.0 mph - N/A   Scattered Clouds
1:55 PM 69.8 °F 59.0 °F 68% 30.02 in 10.0 mi WNW 13.8 mph - N/A   Partly Cloudy
2:15 PM 71.6 °F 57.2 °F 60% 30.02 in 10.0 mi WNW 12.7 mph 18.4 mph N/A   Clear
2:35 PM 69.8 °F 57.2 °F 64% 30.02 in 10.0 mi West 13.8 mph - N/A   Clear
2:55 PM 68.0 °F 57.2 °F 68% 30.02 in 10.0 mi WNW 15.0 mph - N/A   Partly Cloudy
3:15 PM 66.2 °F 57.2 °F 73% 30.02 in 10.0 mi WNW 12.7 mph - N/A   Clear
3:35 PM 68.0 °F 57.2 °F 68% 30.02 in 10.0 mi WNW 13.8 mph - N/A   Clear
3:55 PM 66.2 °F 57.2 °F 73% 30.01 in 10.0 mi WNW 13.8 mph - N/A   Clear
4:15 PM 68.0 °F 57.2 °F 68% 30.01 in 10.0 mi NW 11.5 mph - N/A   Clear
4:35 PM 68.0 °F 57.2 °F 68% 30.01 in 10.0 mi WNW 12.7 mph - N/A   Clear
4:55 PM 68.0 °F 57.2 °F 68% 30.01 in 10.0 mi WNW 12.7 mph - N/A   Clear
5:15 PM 66.2 °F 57.2 °F 73% 30.00 in 10.0 mi NW 10.4 mph - N/A   Clear
5:35 PM 66.2 °F 57.2 °F 73% 30.00 in 10.0 mi WNW 11.5 mph - N/A   Clear
5:55 PM 66.2 °F 57.2 °F 73% 30.00 in 10.0 mi WNW 10.4 mph - N/A   Clear
6:15 PM 64.4 °F 55.4 °F 73% 30.00 in 10.0 mi NW 8.1 mph - N/A   Clear
6:35 PM 64.4 °F 55.4 °F 73% 30.00 in 10.0 mi NW 8.1 mph - N/A   Clear
6:55 PM 62.6 °F 55.4 °F 77% 29.99 in 10.0 mi NW 9.2 mph - N/A   Clear
7:15 PM 62.6 °F 55.4 °F 77% 29.99 in 10.0 mi WNW 6.9 mph - N/A   Clear
7:35 PM 59.0 °F 55.4 °F 88% 29.99 in 9.0 mi WNW 5.8 mph - N/A   Clear
7:55 PM 57.2 °F 53.6 °F 88% 29.99 in 9.0 mi WNW 5.8 mph - N/A   Clear
8:15 PM 55.4 °F 53.6 °F 94% 30.00 in 7.0 mi NW 4.6 mph - N/A   Clear
8:35 PM 55.4 °F 53.6 °F 94% 30.00 in 6.0 mi Calm Calm - N/A   Clear
8:55 PM 55.4 °F 53.6 °F 94% 29.99 in 6.0 mi Calm Calm - N/A   Clear
9:15 PM 55.4 °F 53.6 °F 94% 30.00 in 8.0 mi Calm Calm - N/A   Clear
9:35 PM 55.4 °F 53.6 °F 94% 29.99 in 10.0 mi Calm Calm - N/A   Clear
9:55 PM 55.4 °F 53.6 °F 94% 29.99 in 9.0 mi South 3.5 mph - N/A   Clear
10:15 PM 55.4 °F 53.6 °F 94% 29.99 in 8.0 mi South 3.5 mph - N/A   Clear
10:35 PM 55.4 °F 53.6 °F 94% 29.98 in 9.0 mi SSE 6.9 mph - N/A   Clear
10:55 PM 55.4 °F 53.6 °F 94% 29.98 in 8.0 mi Calm Calm - N/A   Clear
11:15 PM 53.6 °F 53.6 °F 100% 29.98 in 8.0 mi Calm Calm - N/A   Clear
11:35 PM 53.6 °F 53.6 °F 100% 29.97 in 8.0 mi Calm Calm - N/A   Clear
11:55 PM 55.4 °F 53.6 °F 94% 29.97 in 8.0 mi Calm Calm - N/A   Clear